Change the Weather History Date:

Wednesday, October 3, 2012

  Actual Average Record
Temperature  
Mean Temperature 73 °F 61 °F  
Max Temperature 81 °F 73 °F 86 °F (2002)
Min Temperature 64 °F 49 °F 30 °F (1974)
Degree Days  
Heating Degree Days 0 6  
Month to date heating degree days 8 17  
Since 1 July heating degree days 59 75  
Cooling Degree Days 8 1  
Month to date cooling degree days 8 5  
Year to date cooling degree days 1428 1162  
Growing Degree Days 22 (Base 50)    
Moisture  
Dew Point 66 °F    
Average Humidity 79    
Maximum Humidity 100    
Minimum Humidity 58    
Precipitation  
Precipitation T in 0.10 in 0.86 in (1987)
Month to date precipitation 2.36 0.31  
Year to date precipitation 25.12 32.23  
Snow  
Snow 0.00 in 0.00 in - ()
Month to date snowfall 0.0 0.0  
Since 1 July snowfall 0.0 0.0  
Snow Depth 0.00 in    
Sea Level Pressure  
Sea Level Pressure 30.04 in    
Wind  
Wind Speed 2 mph (SSW)    
Max Wind Speed 8 mph    
Max Gust Speed 10 mph    
Visibility 5 miles    
Events Fog , Rain    
T = Trace of Precipitation, MM = Missing Value Source: NWS Daily Summary

Daily Weather History Graph

Daily Weather History Graph

Search for Another Location

Airport or City:

Trip Planner

Search our weather history database for the weather conditions in past years. The results will help you decide how hot, cold, wet, or windy it might be!

Date:

Astronomy

Oct. 03, 2012 Rise Set
Actual Time 7:08 AM EDT 6:48 PM EDT
Civil Twilight 6:41 AM EDT 7:15 PM EDT
Nautical Twilight 6:10 AM EDT 7:46 PM EDT
Astronomical Twilight 5:39 AM EDT 8:17 PM EDT
Moon 8:41 PM EDT (10/3) 10:27 AM EDT (10/3)
Length of Visible Light 12h 33m
Length of Day
11h 40m
Waning Gibbous, 89% of the Moon is Illuminated
Oct 3
Waning Gibbous
Oct 8
Last Quarter
Oct 15
New
Oct 21
First Quarter
Oct 29
Full

Hourly Weather History & Observations

Time (EDT) Temp. Heat Index Dew Point Humidity Pressure Visibility Wind Dir Wind Speed Gust Speed Precip Events Conditions
12:45 AM 64.4 °F - 62.6 °F 94% 29.96 in 0.2 mi NNE 3.5 mph - 0.09 in   Overcast
12:47 AM 64.4 °F - 62.6 °F 94% 29.96 in 2.5 mi North 4.6 mph - 0.09 in   Overcast
12:52 AM 64.0 °F - 63.0 °F 96% 29.95 in 2.5 mi Calm Calm - 0.09 in   Overcast
1:04 AM 64.4 °F - 64.4 °F 100% 29.96 in 2.5 mi Calm Calm - N/A   Overcast
1:11 AM 64.4 °F - 64.4 °F 100% 29.96 in 2.5 mi Calm Calm - N/A   Overcast
1:33 AM 64.4 °F - 64.4 °F 100% 29.96 in 2.5 mi North 4.6 mph - 0.00 in   Overcast
1:52 AM 64.9 °F - 64.0 °F 97% 29.96 in 2.5 mi Calm Calm - 0.00 in Rain Light Rain
2:50 AM 64.4 °F - 64.4 °F 100% 29.97 in 2.5 mi Calm Calm - 0.00 in   Overcast
2:52 AM 64.9 °F - 64.0 °F 97% 29.97 in 2.5 mi Calm Calm - 0.00 in   Overcast
3:52 AM 64.0 °F - 64.0 °F 100% 29.98 in 0.2 mi WNW 4.6 mph - N/A   Overcast
4:52 AM 64.0 °F - 64.0 °F 100% 29.99 in 0.2 mi NW 3.5 mph - N/A   Mist
5:47 AM 64.4 °F - 64.4 °F 100% 30.02 in 0.1 mi Calm Calm - N/A Fog Fog
5:52 AM 64.0 °F - 64.0 °F 100% 30.01 in 0.1 mi Calm Calm - N/A Fog Fog
5:54 AM 64.4 °F - 64.4 °F 100% 30.02 in 0.1 mi Calm Calm - N/A Fog Fog
6:52 AM 64.9 °F - 64.0 °F 97% 30.03 in 0.1 mi Calm Calm - N/A Fog Fog
7:52 AM 64.9 °F - 64.9 °F 100% 30.04 in 0.1 mi Calm Calm - N/A Fog Fog
8:52 AM 66.0 °F - 64.9 °F 96% 30.06 in 0.1 mi Calm Calm - N/A Fog Fog
9:26 AM 66.2 °F - 66.2 °F 100% 30.08 in 0.2 mi Calm Calm - N/A Fog Fog
9:39 AM 66.2 °F - 66.2 °F 100% 30.08 in 0.5 mi Calm Calm - N/A Fog Fog
9:52 AM 66.9 °F - 66.9 °F 100% 30.07 in 0.0 mi Calm Calm - N/A   Mist
10:19 AM 68.0 °F - 66.2 °F 94% 30.08 in 0.0 mi South 3.5 mph - N/A   Mist
10:37 AM 68.0 °F - 66.2 °F 94% 30.09 in 2.0 mi South 4.6 mph - N/A   Mist
10:46 AM 69.8 °F - 66.2 °F 88% 30.09 in 6.0 mi South 5.8 mph - N/A   Overcast
10:52 AM 70.0 °F - 68.0 °F 93% 30.09 in 6.0 mi South 4.6 mph - N/A   Overcast
11:10 AM 69.8 °F - 68.0 °F 94% 30.09 in 7.0 mi South 3.5 mph - N/A   Overcast
11:52 AM 71.1 °F - 68.0 °F 90% 30.09 in 7.0 mi South 5.8 mph - N/A   Mostly Cloudy
12:23 PM 73.4 °F - 68.0 °F 83% 30.09 in 10.0 mi South 6.9 mph - N/A   Mostly Cloudy
12:52 PM 75.0 °F - 69.1 °F 82% 30.08 in 10.0 mi SSW 4.6 mph - N/A   Mostly Cloudy
1:52 PM 78.1 °F - 68.0 °F 71% 30.07 in 10.0 mi SSW 5.8 mph - N/A   Mostly Cloudy
2:52 PM 79.0 °F - 66.0 °F 64% 30.07 in 10.0 mi SSW 3.5 mph - N/A   Mostly Cloudy
3:52 PM 80.1 °F 81.9 °F 64.9 °F 60% 30.06 in 10.0 mi South 4.6 mph - N/A   Mostly Cloudy
4:52 PM 80.1 °F 82.3 °F 66.9 °F 64% 30.06 in 10.0 mi SSW 3.5 mph - N/A   Mostly Cloudy
5:52 PM 78.1 °F - 68.0 °F 71% 30.07 in 10.0 mi Calm Calm - N/A   Mostly Cloudy
6:52 PM 73.9 °F - 69.1 °F 85% 30.08 in 10.0 mi Calm Calm - N/A   Mostly Cloudy
7:52 PM 71.1 °F - 69.1 °F 93% 30.09 in 10.0 mi Calm Calm - N/A   Mostly Cloudy
8:52 PM 71.1 °F - 69.1 °F 93% 30.10 in 10.0 mi Calm Calm - N/A   Mostly Cloudy
9:52 PM 72.0 °F - 69.1 °F 91% 30.11 in 10.0 mi Calm Calm - N/A   Mostly Cloudy
10:52 PM 71.1 °F - 69.1 °F 93% 30.11 in 10.0 mi Calm Calm - N/A   Overcast
11:52 PM 70.0 °F - 69.1 °F 97% 30.12 in 10.0 mi Calm Calm - 0.00 in   Overcast